{"data":{"norad_id":66183,"intl_designator":"2025-243G","name":"STARLINK-35310","alt_names":[],"object_type":"PAYLOAD","status":"ACTIVE","operator":null,"country":"US","launch_date":"2025-10-26","launch_site_code":"AFETR","launch_vehicle":null,"mission":null,"orbit_class":"UNKNOWN","rcs_meters":null,"size_class":null,"mass_kg":null,"dimensions":null,"purposes":["comms"],"wikipedia_slug":null,"has_3d_model":false,"image_url":null,"decayed_at":null,"tle_current":{"epoch":"2026-05-25T00:00:02.592864Z","epoch_age_seconds":68408,"freshness":"FRESH","line1":"1 66183U 25243G   26145.00003001  .00023768  00000+0  81201-3 0  9992","line2":"2 66183  53.1577 251.0548 0001212  88.0818 272.0321 15.30201701 32336","mean_motion":15.30201701,"eccentricity":0.0001212,"inclination_deg":53.1577,"raan_deg":251.0548,"arg_perigee_deg":88.0818,"mean_anomaly_deg":272.0321,"bstar":0.00081201,"rev_number":3233,"period_min":94.105241097232,"perigee_km":474.37936488938,"apogee_km":476.04061619989,"semimajor_km":6853.3469905446,"source":"CELESTRAK","updated_at":"2026-05-25T13:38:21.076633Z"}}}